sat.trackr.live / text

‹ back to catalog

STARLINK-34853

NORAD 65892 · 2025-224L

PAYLOAD ACTIVE UNKNOWN

§ Identity

Operator
Country
US
Launch date
2025-10-07
Launch site
AFETR
Launch vehicle
Mass (kg)
RCS (m²)

Purposes: comms

External: N2YO · Heavens-Above · Gunter

§ Orbital elements

Epoch: 2026-09-19T12:31:47.978112Z

Period
93.85 min
Inclination
53.1595°
Eccentricity
0.0001218
Mean motion
15.34400705 rev/d
Perigee alt
461.9 km
Apogee alt
463.5 km
Semi-major
6,840.8 km
B*
2.7537e-4
RAAN
186.5734°
Arg perigee
91.7377°
Mean anomaly
268.3765°
Rev number
5,454

§ Raw data

STARLINK-348531 65892U 25224L   26262.52208308  .00008939  00000+0  27537-3 0  99962 65892  53.1595 186.5734 0001218  91.7377 268.3765 15.34400705 54544

JSON: /api/v1/satellites/65892 · /tle

For live sub-satellite position, see the globe view (requires WebGL).

§ Visibility from observer

Set your observer location to see the next 7 days of passes ≥ 10°. The values pass through the URL so the page stays shareable.

No JS? Fill the form by hand. The geolocation button needs JavaScript.